#timestamp,LO_Frequency,Hit,StdDev 
1658343615.8,286047002.7,N
1658343635.7,286047000.1,N
1658343655.5,286047000.1,N
1658343675.4,286047002.1,N
1658343695.2,286047000.0,N
1658343715.0,286047000.5,N
1658343715.9,286047000.5,N
1658343735.8,286047002.7,N
1658343755.6,286047000.5,N
1658343775.4,286047002.8,N
1658343795.3,286047001.7,N
1658343815.1,286047001.6,N
1658343835.9,286047001.3,N
1658343855.7,286047001.6,N
1658343875.5,286047003.2,N
1658343895.4,286047003.5,Y
1658343915.2,286047003.7,P
1658343935.0,286047006.0,P
1658343935.9,286047006.0,P
1658343955.8,286047005.3,N
1658343975.6,286047003.0,N
1658343995.5,286047003.6,N
1658344015.3,286047003.8,N
1658344035.1,286047003.9,N
1658344055.9,286047004.0,N
1658344075.7,286047001.7,N
1658344095.5,286047004.4,Y
1658344115.4,286046998.1,P
1658344135.2,286047000.6,N
1658344155.1,286046999.4,N
1658344156.0,286046999.4,N
1658344175.8,286046998.6,N
1658344195.6,286047000.9,N
1658344215.5,286047000.6,N
1658344235.3,286047000.8,N
1658344255.1,286047000.8,N
1658344275.9,286046998.6,N
1658344295.7,286046998.5,N
1658344315.6,286047000.8,N
1658344335.4,286046998.6,N
1658344355.2,286047000.7,N
1658344375.1,286046999.3,N
1658344376.0,286046999.3,N
1658344395.8,286046999.4,N
1658344415.6,286047001.2,N
1658344435.5,286046999.3,N
1658344455.3,286046998.4,N
1658344475.2,286046998.4,N
1658344495.9,286046998.5,N
1658344515.7,286046998.2,N
1658344535.6,286046998.6,N
1658344555.4,286046998.9,N
1658344575.2,286047001.0,N
1658344595.1,286047000.8,N
1658344596.0,286047000.8,N
1658344615.8,286046998.1,N
1658344635.7,286047000.6,N
1658344655.5,286046999.0,N
1658344675.3,286046998.4,N
1658344695.2,286046998.5,N
1658344715.9,286047000.7,N
1658344735.7,286046998.6,N
1658344755.6,286047000.8,N
1658344775.4,286047001.2,N
1658344795.2,286046998.2,N
1658344815.1,286046998.7,N
1658344816.0,286046998.7,N
1658344835.8,286046998.8,N
1658344855.7,286046998.4,N
1658344875.5,286046998.9,N
1658344895.3,286046998.5,N
1658344915.2,286046998.9,N
1658344935.0,286046999.0,N
1658344935.9,286046999.0,N
1658344955.8,286046999.1,N
1658344975.6,286046996.5,Y
1658344995.4,286047001.1,P
1658345015.3,286046997.9,N
1658345035.1,286046997.8,N
1658345055.8,286046997.8,N
1658345075.7,286046996.5,N
1658345095.5,286046999.0,N
1658345115.3,286046996.5,N
1658345135.2,286046998.9,N
1658345155.0,286046996.9,N
1658345155.9,286046996.9,N
1658345175.8,286046996.6,N
1658345195.6,286046996.9,N
1658345215.4,286046999.2,N
1658345235.3,286046999.6,N
1658345255.1,286046997.0,N
1658345275.8,286046997.2,N
1658345295.7,286046996.9,N
1658345315.5,286046999.6,N
1658345335.4,286046999.2,N
1658345355.2,286046999.5,N
1658345375.0,286046999.6,N
1658345375.9,286046999.6,N
1658345395.8,286046999.4,N
1658345415.6,286046999.3,N
1658345435.4,286046997.1,N
1658345455.3,286046999.1,N
1658345475.1,286046997.0,N
1658345495.9,286046996.6,N
1658345515.7,286046997.0,N
1658345535.5,286046996.7,N
1658345555.4,286046997.1,N
1658345575.2,286046999.1,N
1658345595.0,286046999.4,N
1658345595.9,286046999.4,N
1658345615.8,286046998.2,N
1658345635.6,286047001.0,N
1658345655.5,286047000.0,N
1658345675.3,286047000.3,N
1658345695.1,286047000.1,N
1658345715.9,286047000.9,N
1658345735.7,286047000.1,N
1658345755.5,286047000.3,N
1658345775.4,286047000.2,N
1658345795.2,286047000.0,N
1658345815.1,286047000.4,N
1658345816.0,286047000.4,N
1658345835.8,286047000.4,N
1658345855.6,286047000.8,N
1658345875.5,286047000.3,N
1658345895.3,286047001.0,N
1658345915.1,286047000.8,N
1658345935.9,286046998.5,N
1658345955.7,286046998.6,N
1658345975.6,286046999.1,N
1658345995.4,286046999.3,N
1658346015.2,286046996.5,N
1658346035.1,286046999.4,N
1658346036.0,286046999.4,N
1658346055.8,286046999.2,N
1658346075.6,286046996.5,N
1658346095.5,286046999.6,N
1658346115.3,286046998.8,N
1658346135.2,286047000.5,N
1658346155.9,286047000.2,N
1658346175.7,286046999.8,N
1658346195.6,286047000.2,N
1658346215.4,286047000.6,N
1658346235.3,286046999.9,N
1658346255.1,286047000.2,N
1658346256.0,286047000.2,N
1658346275.8,286047002.7,N
1658346295.7,286047001.9,N
1658346315.5,286047002.5,N
1658346335.3,286047000.2,N
1658346355.2,286047002.0,N
1658346375.0,286047002.8,N
1658346375.9,286047002.8,N
1658346395.8,286047002.5,N
1658346415.6,286047002.4,N
1658346435.4,286047003.9,N
1658346455.3,286047002.4,N
1658346475.1,286047002.4,N
1658346495.9,286047001.6,N
1658346515.7,286047002.4,N
1658346535.5,286046999.7,N
1658346555.4,286046999.7,N
1658346575.2,286046999.7,N
1658346595.1,286047001.8,N
1658346596.0,286047001.8,N
1658346615.8,286047002.0,N
1658346635.6,286047002.4,N
1658346655.5,286047000.4,N
1658346675.3,286047000.5,N
1658346695.1,286046999.9,N
1658346715.9,286047000.4,N
1658346735.7,286047000.4,N
1658346755.6,286047000.9,N
1658346775.4,286047001.0,N
1658346795.2,286047000.0,N
1658346815.1,286047000.1,N
1658346816.0,286047000.1,N
1658346835.8,286047000.1,N
1658346855.6,286046999.9,N
1658346875.5,286046999.9,N
1658346895.3,286047002.3,N
1658346915.2,286047002.2,N
1658346935.0,286047002.2,N
1658346935.9,286047002.2,N
1658346955.7,286047000.2,N
1658346975.6,286047002.6,N
1658346995.4,286047000.5,N
1658347015.3,286047002.7,N
1658347035.1,286046999.7,N
1658347036.0,286046999.7,N
1658347055.8,286047002.2,N
1658347075.7,286047000.4,N
1658347095.5,286047000.6,N
1658347115.3,286046998.5,N
1658347135.2,286047000.5,N
1658347155.0,286046998.7,N
1658347155.9,286046998.7,N
1658347175.8,286046998.6,N
1658347195.6,286046999.0,N
